Regional Weather Roundup
Issued by NWS

Home | Current Version | Previous Version | Graphics & Text | Print | Product List | Glossary On
Versions: 1 2 3 4 5 6 7 8 9 10 11 12 13 14 15 16 17 18 19 20 21 22 23 24 25 26 27 28 29 30 31 32 33 34 35 36 37 38 39 40 41 42 43 44 45 46 47 48 49 50
000
ASUS43 KTOP 280159
RWRKS

WEATHER ROUNDUP FOR KANSAS
NATIONAL WEATHER SERVICE GOODLAND KS
900 PM CDT WED MAY 27 2015

NOTE:  "FAIR" INDICATES FEW OR NO CLOUDS BELOW 12,000 FEET WITH NO
SIGNIFICANT WEATHER AND/OR OBSTRUCTIONS TO VISIBILITY.

KSZ001>006-013>018-027>032-041>047-280300-
NORTHWEST KANSAS

CITY           SKY/WX    TMP DP  RH WIND       PRES   REMARKS
GOODLAND       MOCLDY    65  58  78 S20G31    30.03R
HAYS           CLOUDY    68  57  68 SE21G26   30.00R
HILL CITY      CLOUDY    66  62  87 E8        30.00R
RUSSELL        LGT RAIN  69  65  86 SE17      29.99F
$$

KSZ061>065-074>080-084>089-280300-
SOUTHWEST KANSAS

CITY           SKY/WX    TMP DP  RH WIND       PRES   REMARKS
DODGE CITY     RAIN      68  63  84 SE21G31   30.03R
ELKHART          N/A     62  52  70 SE20        N/A
GARDEN CITY    LGT RAIN  58  57  97 E22       30.03F
GREAT BEND     CLOUDY    70  63  78 NE9       30.05R THUNDER
LIBERAL        CLOUDY    64  55  72 NE10      30.08R
$$

KSZ066>073-081>083-090>101-280300-
SOUTHEAST KANSAS

CITY           SKY/WX    TMP DP  RH WIND       PRES   REMARKS
CHANUTE        MOCLDY    74  66  76 E5        30.05R
COFFEYVILLE    CLOUDY    76  68  76 E3        30.04R
HUTCHINSON     CLOUDY    72  64  76 E6        30.03R
NEWTON         CLOUDY    72  61  68 SE5       30.07R
PARSONS        CLOUDY    73  69  87 CALM      30.06R
WICHITA INTL   CLOUDY    76  65  68 SE8       30.03R
WICHITA JABRA  CLOUDY    73  65  75 SE5       30.05R
WINFIELD       CLOUDY    76  67  73 SE8       30.04R
$$

KSZ007>012-019>026-033>040-048>060-102>105-280300-
NORTHEAST KANSAS

CITY           SKY/WX    TMP DP  RH WIND       PRES   REMARKS
CONCORDIA      CLOUDY    68  60  75 SE7       30.03S
EMPORIA        CLOUDY    71  63  75 E7        30.05R
LAWRENCE       MOCLDY    68  62  81 E5        30.05S
MANHATTAN      CLOUDY    71  64  78 CALM      30.04R
OLATHE IND     MOCLDY    72  56  57 E5        30.07S
OLATHE EXE     MOCLDY    72  54  53 SE6       30.07R
SALINA         CLOUDY    75  63  66 E6        30.04R
TOPEKA BILLARD MOCLDY    73  57  57 E3        30.05S
TOPEKA FORBES  MOCLDY    71  59  65 E5        30.05S
$$



USA.gov is the U.S. government's official web portal to all federal, state and local government web resources and services.